Location: Kenockee Observatory
(43.0173°N, 82.7297°W)
Time: 12:39:05
(UTC-05:00)

Daily predictions for brighter satellites

Satellite Brightness Start Highest point End
(mag) Time Altitude Azimuth Time Altitude Azimuth Time Altitude Azimuth
Cosmos 1125 Rocket 3.6 17:17:10 10° S 17:22:25 69° ESE 17:27:43 10° NNE
Cosmos 2341 Rocket 4.0 17:16:38 10° N 17:22:48 62° E 17:28:56 10° SSE
ATLAS 2AS CENTAUR R/B 3.4 17:16:07 10° NNW 17:23:50 44° NE 17:31:09 10° ESE
EO 1 Del DPAF 4.2 17:20:30 10° N 17:24:17 50° WNW 17:28:02 10° SSW
Thor Agena Rocket 4.1 17:19:56 10° NNE 17:24:48 39° E 17:29:40 10° SSE
ATLAS CENTAUR R/B 4.0 17:24:49 10° WNW 17:27:00 13° NW 17:29:08 10° N
Cosmos 1269 Rocket 4.0 17:22:04 10° NNW 17:27:24 80° ENE 17:32:43 10° SSE
IRS-1A Rocket 4.3 17:22:23 10° SSE 17:27:53 85° ENE 17:33:25 10° NNW
ASTEX 1 4.3 17:30:15 10° N 17:35:08 54° W 17:39:59 10° SSW
Cosmos 1536 2.8 17:31:08 10° N 17:35:13 70° E 17:39:16 10° SSE
Cosmos 1606 4.3 17:32:04 10° SW 17:35:43 37° WNW 17:39:24 10° N
Cosmos 2251 Rocket 4.2 17:33:20 10° N 17:38:10 33° ENE 17:42:56 10° SE
Cosmos 2263 Rocket 3.3 17:33:34 10° SW 17:38:53 43° WNW 17:44:16 10° NNE
Meteor 1-11 Rocket 4.2 17:36:42 10° NNW 17:42:12 64° W 17:47:38 10° S
ISS -2.9 17:43:13 10° SW 17:46:26 51° SE 17:49:07 14° ENE
Cosmos 1633 3.6 17:44:22 10° NNW 17:47:52 50° W 17:51:20 10° S
MSX 4.0 17:48:03 10° SE 17:53:36 53° ENE 17:59:10 10° N
SL-27 R/B 2.9 17:50:44 10° N 17:54:14 41° ENE 17:57:42 10° SE
Okean 1 Rocket 4.4 17:51:57 10° NNW 17:56:02 42° W 18:00:07 10° SSW
Cosmos 1812 3.5 17:53:25 10° SSE 17:56:49 30° E 18:00:14 10° NNE
Cosmos 1346 Rocket 4.5 17:54:59 10° ESE 17:57:07 14° E 17:57:08 14° E
SJ-12 3.9 17:54:48 10° SSE 17:58:53 86° WSW 18:03:02 10° NNW
CZ-4 R/B 1.9 17:57:11 10° S 18:01:21 68° W 18:05:31 10° NNW
COSMO-SKYMED 1 3.4 17:57:45 10° NE 18:01:34 29° E 18:05:22 10° SSE
Okean 3 4.3 17:58:01 10° SSW 18:02:12 52° W 18:06:24 10° N
Cosmos 1544 Rocket 3.6 17:58:08 10° N 18:02:33 57° E 18:06:56 10° SSE
Cosmos 158 Rocket 4.2 17:57:28 10° NNW 18:02:52 81° WSW 18:08:07 10° SSE
Cosmos 1844 Rocket 2.6 17:59:32 10° SSW 18:05:05 73° ESE 18:10:43 10° NNE
Cosmos 1975 Rocket 3.3 18:02:11 10° SSW 18:06:29 70° W 18:10:48 10° N
GEOS 3 Rocket 3.8 18:02:33 10° ESE 18:07:28 50° NE 18:12:25 10° NNW
CZ-2C R/B 2.6 18:03:06 10° S 18:08:02 80° WSW 18:13:10 10° NNW
Meteor 1-12 Rocket 4.4 18:05:48 10° N 18:11:27 53° ENE 18:17:09 10° SSE
Cosmos 1238 Rocket 2.2 18:08:57 10° S 18:11:49 48° E 18:13:47 18° NNE
MONITOR-E 4.3 18:09:26 10° SSE 18:12:34 55° ENE 18:15:43 10° N
CZ-3A R/B 3.7 18:10:28 10° WSW 18:15:15 65° NNW 18:35:18 15° ENE
Cosmos 1844 3.6 18:09:51 10° SSW 18:15:21 66° ESE 18:20:25 12° NNE
Cosmos 1975 3.3 18:12:30 10° N 18:16:21 38° ENE 18:20:09 10° SSE
BREEZE-M DEB (TANK) 2.3 18:15:48 10° W 18:17:53 40° NNW 18:18:35 30° NNE
Cosmos 1536 Rocket 3.7 18:18:39 10° S 18:22:59 55° E 18:27:22 10° NNE
COSMOS 2441 4.3 18:18:46 10° SSE 18:23:37 79° ENE 18:28:32 10° N
SPOT 3 Rocket 4.4 18:21:37 10° S 18:26:41 52° W 18:31:45 10° NNW
SL-24 DEB 4.2 18:22:13 10° N 18:26:58 67° E 18:31:39 10° S
SMAP 4.1 18:24:04 10° S 18:28:33 48° W 18:33:05 10° NNW
YAOGAN 1 3.7 18:25:50 10° S 18:29:59 47° W 18:34:12 10° NNW
Cosmos 2278 Rocket 2.3 18:27:36 10° S 18:33:06 56° ESE 18:36:35 23° NE
SL-8 Rocket 4.5 18:28:17 10° NNW 18:34:22 62° W 18:40:24 10° S
IDEFIX/ARIANE 42P 4.0 18:38:14 10° SSW 18:43:06 40° W 18:47:58 10° NNW
Cosmos 2366 rocket 4.3 18:38:09 10° NNW 18:44:29 72° W 18:50:45 10° S
Abrixas 4.0 18:42:06 10° WNW 18:44:08 26° NNW 18:44:08 26° NNW
Cosmos 1484 Rocket 3.0 18:43:14 10° S 18:47:00 67° W 18:50:44 10° NNW
OTV 4 3.1 18:46:45 10° SW 18:48:31 15° SSW 18:49:39 12° S
USA 234 4.1 18:45:29 19° NE 18:49:44 42° NNW 18:55:47 10° W
SKYMED 2 3.6 18:46:12 15° N 18:49:47 83° WNW 18:54:07 10° SSW
CZ-3B DEB 2.4 18:45:47 10° SW 18:49:48 82° NW 18:55:16 25° NE
Genesis I 4.2 18:48:18 10° NNW 18:50:56 33° N 18:50:56 33° N
Cosmos 1455 Rocket 3.9 18:47:57 10° NNW 18:52:14 52° W 18:56:31 10° S
Timation 2 Rocket 4.2 18:49:03 10° NNW 18:55:43 55° ENE 18:59:44 25° SE
Cosmos 2082 Rocket 2.4 18:52:02 10° NNW 18:57:27 44° ENE 18:57:45 44° ENE
NOSS 3-4 (A) 4.4 18:53:11 10° NNW 18:59:18 33° NE 18:59:51 32° NE
NOSS 3-4 (C) 4.5 18:53:17 10° NNW 18:59:24 32° NE 18:59:55 32° NE
Cosmos 1241 Rocket 4.5 18:53:19 10° NNW 18:59:59 86° ENE 19:06:35 10° SSE
Cosmos 1833 Rocket 3.1 18:58:06 10° NNW 19:02:46 40° NE 19:02:46 40° NE
BREEZE-M DEB (TANK) 3.9 18:58:51 10° WNW 19:04:42 35° N 19:05:28 33° NNE
Cosmos 375 4.2 19:01:11 10° NW 19:05:41 88° SW 19:05:55 80° SSE
NOSS 3-3 (A) 3.9 19:00:47 10° SSW 19:06:59 85° SE 19:09:41 38° NE
NOSS 3-3 (C) 3.9 19:00:53 10° SSW 19:07:05 84° SE 19:09:45 39° NE
SL-8 R/B 3.6 19:04:05 10° SW 19:08:49 70° SSE 19:09:02 68° SE
Cosmos 1809 Rocket 4.5 19:03:46 10° N 19:09:57 80° W 19:16:04 10° S
Cosmos 1500 3.8 19:07:47 10° NNW 19:11:32 56° W 19:15:18 10° S
Cosmos 2239 Rocket 4.4 19:05:29 10° N 19:11:40 63° E 19:17:45 10° SSE
Okean 1 4.4 19:08:16 10° SSW 19:12:09 45° WNW 19:14:31 21° NNW
Meteor 1-28 Rocket 3.6 19:15:04 61° WSW 19:15:04 61° WSW 19:18:23 10° SSW
ATLAS 2AS CENTAUR R/B 3.7 19:07:20 10° NW 19:15:07 55° WSW 19:22:22 10° SSE
NOAA 12 4.1 19:10:55 10° SSE 19:16:13 82° WSW 19:21:31 10° NNW
METEOR-M 4.0 19:11:38 10° SSE 19:16:59 86° ENE 19:22:21 10° NNW
Cosmos 1821 Rocket 3.8 19:13:57 10° N 19:20:03 69° E 19:26:06 10° SSE
ISS -1.0 19:20:07 10° W 19:21:48 22° WNW 19:21:48 22° WNW
Cosmos 1346 Rocket 4.1 19:29:27 10° SSW 19:32:45 38° W 19:32:45 38° W
SL-24 R/B - RUBIN 2 4.4 19:42:23 10° SW 19:48:44 84° WNW 19:48:47 84° NW
ATLAS 3B CENTAUR R/B 4.2 19:47:33 10° WSW 19:58:28 28° SSW 20:00:10 26° S
Cosmos 2297 4.3 19:54:53 10° SW 19:59:28 53° WSW 19:59:28 53° WSW
CZ-3A R/B 4.4 19:59:54 10° WNW 20:07:18 28° NNW 20:07:18 28° NNW
Cosmos 2278 Rocket 4.0 20:12:58 10° WSW 20:17:33 25° NW 20:18:28 24° NW
FALCON 9 R/B 3.7 20:14:27 10° WSW 20:26:28 42° SSW 20:26:28 42° SSW
Cosmos 2082 Rocket 4.2 20:36:34 10° NW 20:39:41 24° WNW 20:39:41 24° WNW
